Simultaneous Nadir Overpasses (SNOs) Predictions

Prediction of SNOs between AQUA and METOP-C Satellite Orbit:

Table of predicted SNOs for the next 14.0 days since TLE Epoch: 4/12/2019
Index Date (AQUA) Time (AQUA) Lat,Lon (AQUA) SZA (AQUA ) Date (METOP-C) Time (METOP-C) Lat,Lon (METOP-C) SZA (METOP-C ) Distance(km) Time Diff (sec)
1 04/14/2019 11:17:55 73.80, 4.95 64.40 04/14/2019 11:16:58 73.79, 5.02 64.40 2.47 57
2 04/14/2019 12:07:22 -73.87, 172.42 115.54 04/14/2019 12:07:38 -73.85, 172.50 115.56 3.52 16
3 04/14/2019 12:57:00 74.42, -21.19 65.04 04/14/2019 12:58:07 74.41, -18.77 64.95 72.48 67
4 04/17/2019 06:52:08 73.81, 71.36 63.40 04/17/2019 06:51:22 73.79, 71.42 63.39 3.03 46
5 04/17/2019 07:41:34 -73.84,-121.05 116.59 04/17/2019 07:42:02 -73.86,-121.08 116.56 2.72 28
6 04/20/2019 02:26:19 73.78, 137.88 62.38 04/20/2019 02:25:45 73.79, 137.82 62.40 2.07 34
7 04/20/2019 03:15:46 -73.86, -54.65 117.55 04/20/2019 03:16:25 -73.87, -54.66 117.54 1.06 39
8 04/22/2019 22:00:32 73.80,-155.73 61.45 04/22/2019 22:00:09 73.78,-155.78 61.44 2.44 23
9 04/22/2019 22:49:59 -73.88, 11.73 118.48 04/22/2019 22:50:49 -73.87, 11.76 118.50 1.55 50
10 04/25/2019 16:45:11 -73.50, 103.73 119.79 04/25/2019 16:44:00 -73.45, 102.52 119.80 38.53 71
11 04/25/2019 17:34:45 73.83, -89.36 60.55 04/25/2019 17:34:32 73.83, -89.26 60.55 3.19 13
12 04/25/2019 18:24:11 -73.87, 78.22 119.43 04/25/2019 18:25:13 -73.88, 78.18 119.42 1.84 62




NCC Satellite Simultaneous Nadir Overpasses (SNOs) Prediction Service
